Weather in Ordjonikidze

Russia / Republic of Crimea     44°57′49″N   35°21′28″E
temp.,
°C
wind,
m/s
gust,
m/s
humid.,
%
clouds,
%
prec.,
mm/h
press.,
hPa
HPBL,
m
27 february, sat
sat2700:00+7sw58911 0.0 1023182
03:00+6sw46910 0.0 1022161
06:00+6sw45910 0.0 1020112
09:00+7sw45850 0.0 1020181
12:00+11sw34660 0.0 1019440
15:00+13wsw46621 0.0 1018740
18:00+10n367751 0.0 1017379
21:00+6n579375 0.2 1018365
28 february, sun
sun2800:00+5n6990100 1.6 1018534
03:00+5n6891100 1.9 1018539
06:00+4nnw6984100 0.3 1019757
09:00+4nnw698467 0.3 1019748
12:00+4nnw687881 0.1 1020885
15:00+4nw697890 0.4 1021822
18:00+4nw587565 0.1 1021812
21:00+3nw488668 0.2 1023587
1 march, mon
mon100:00+1nw378914 0.0 1024304
03:00+1wnw359233 0.0 1024209
06:00+1nw3594100 0.0 1025224
09:00+2nnw4686100 0.1 1026439
12:00+4nnw456675 0.0 1027929
15:00+4n347187 0.1 1027710
18:00+3nne337597 0.1 1027553
21:00+1n237978 0.1 1029136
2 march, tue
tue200:00+1nnw22781 0.0 1029105
03:00+1nw23791 0.0 103094
06:000nw23820 0.0 103095
09:00+2nw34760 0.0 1030354
12:00+5nw45553 0.0 10301141
15:00+6w465423 0.0 10291207
18:00+5wsw476735 0.0 1027674
21:00+3w247258 0.0 1026308
3 march, wed
wed300:00+3w4127487 0.0 1025442
03:00+5w6128188 0.0 1024594
06:00+4nw598977 0.0 1024517
09:00+4nw487677 0.0 1025658
12:00+7nnw795815 0.0 10261374
15:00+8nnw79468 0.0 10261425
18:00+6nnw58520 0.0 10271090
21:00+4nw36620 0.0 1028291